Regional Weather Roundup
Issued by NWS Portland, ME

Home | Current Version | Previous Version | Text Only | Print | Product List | Glossary On
Versions: 1 2 3 4 5 6 7 8 9 10 11 12 13 14 15 16 17 18 19 20 21 22 23 24 25 26 27 28 29 30 31 32 33 34 35 36 37 38 39 40 41 42 43 44 45 46 47 48 49 50
000
ASUS41 KGYX 272110
RWRGYX
WEATHER ROUNDUP FOR MAINE AND NEW HAMPSHIRE
NATIONAL WEATHER SERVICE GRAY ME
500 PM EDT SUN MAY 27 2018

MEZ002-005-006-010-012-015-018-020-021-024-026-027-029-272200-
MAINE

CITY           SKY/WX    TMP DP  RH WIND       PRES   REMARKS
PORTLAND       PTSUNNY   51  44  77 E14       30.26F
SANFORD        CLOUDY    51  44  77 NE12      30.24F
WISCASSET      CLOUDY    51  40  65 E5        30.27F
ROCKLAND       CLOUDY    49  42  77 E9        30.28
FRYEBURG       CLOUDY    56  33  42 SE7       30.23F
LEWISTONAUBURN CLOUDY    56  37  49 E7        30.24F
AUGUSTA        CLOUDY    54  37  52 SE7       30.25F
WATERVILLE     PTSUNNY   56  39  53 VRB3      30.22F
BANGOR         PTSUNNY   61  35  37 S12       30.24F
GREENVILLE       N/A     59  39  47 VRB7      30.17F
MILLINOCKET    FAIR      68  40  35 VRB7      30.19F
HOULTON        FAIR      64  37  36 S8        30.19F
PRESQUE ISLE   FAIR      66  38  35 S15G21    30.17F
FRENCHVILLE    FAIR      66  38  35 SE12      30.14F
CARIBOU        FAIR      65  38  36 S15       30.16F
$$

NHZ002-005-008-009-011-012-014-272200-
NEW HAMPSHIRE

CITY           SKY/WX    TMP DP  RH WIND       PRES   REMARKS
PORTSMOUTH     CLOUDY    52  44  74 NE13      30.21F
ROCHESTER      CLOUDY    53  44  71 E9        30.22F
NASHUA         CLOUDY    56  43  61 E9G17     30.20S
MANCHESTER     CLOUDY    57  43  59 E9        30.19S
CONCORD        CLOUDY    56  41  57 E10       30.21S
LACONIA        CLOUDY    55  37  50 E12       30.21F
PLYMOUTH       CLOUDY    57  38  47 E7        30.20F
BERLIN         CLOUDY    57  37  47 SE9       30.18F
WHITEFIELD     CLOUDY    57  38  48 S14G23    30.15F
JAFFREY        CLOUDY    54  43  66 NE6       30.17F
KEENE          LGT RAIN  55  44  66 CALM      30.17F
LEBANON        CLOUDY    59  36  42 SE8       30.17F
MT WASHINGTON  CLOUDY    39  28  65 S17         N/A  VSB 1
$$

VTZ005-007-008-272200-
VERMONT

CITY           SKY/WX    TMP DP  RH WIND       PRES   REMARKS
ST JOHNSBURY     N/A     59  39  47 MISG      30.14F
MONTPELIER     CLOUDY    57  46  66 S8        30.19S
BURLINGTON     PTSUNNY   61  48  62 S12       30.09R
$$

MAZ007-012-024-CTZ003-RIZ002-NYZ038-NYZ072-272200-
SOUTHERN NEW ENGLAND AND NY

CITY           SKY/WX    TMP DP  RH WIND       PRES   REMARKS
BOSTON         CLOUDY    53  46  77 NE20      30.18F
WORCESTER      LGT RAIN  49  43  80 E15G21    30.14F
NANTUCKET      LGT RAIN  51  51 100 E16G29    30.07F
PROVIDENCE     LGT RAIN  52  50  93 NE15      30.14S FOG
HARTFORD       LGT RAIN  53  51  93 N9        30.13F
ALBANY         LGT RAIN  60  55  83 SW6       30.09S
NEW YORK CITY  CLOUDY    61  54  77 NE22G32   30.04S
$$

ANZ081-ANZ082-ANZ150-NHZ014-MEZ023>029-272200-
COASTAL MARINE OBSERVATIONS

STATION/POSITION TIME  TEMP    WIND        PRES    WAVE
                       AIR SEA DIR/SP/G            HT/PER
                 (UTC) (F)     (DEG/KT/KT) (MB)    (FT/S)
MOUNT DESERT ROC 2100   47      80/ 14/ 14 1025.2F
MATINICUS ROCK   2100   48      90/ 17/ 18 1024.1F
ISLE OF SHOALS   2100   51      60/ 18/ 21 1022.5F
JEFFREYS LEDGE   2036      53                N/A     6/ 7
CASHES LEDGE BUO 2050   49 52              1023.7
$$

.............KEY..............
   WCI - WIND CHILL
   TC  - TEMPERATURE IN CELSIUS
   VSB - VISIBILITY IN MILES
   HX  - HEAT INDEX
   FAIR- INDICATES FEW OR NO CLOUDS BELOW 12,000 FT, WITH NO
         SIGNIFICANT WEATHER AND/OR OBSTRUCTIONS TO VISIBILITY.






USA.gov is the U.S. government's official web portal to all federal, state and local government web resources and services.